#�ϑ�����,���ϕ���,���ϕ���,�ő啗��,�ő啗����������,�ő�u�ԕ���,�ő�u�ԕ�����������
#(�N����),(m/s)   ,(16����),(m/s)   ,(16����)        ,(m/s)       ,(16����)            
2016/6/16 0:01,2.9,4,2.9,4,5.4,4
2016/6/16 0:02,3.1,4,3.1,4,6.2,4
2016/6/16 0:03,3.2,4,3.2,4,5.6,4
2016/6/16 0:04,3.2,4,3.2,4,3.2,3
2016/6/16 0:05,3.1,4,3.2,4,3.9,4
2016/6/16 0:06,3.1,4,3.1,4,4.9,5
2016/6/16 0:07,3.2,4,3.3,4,4.1,5
2016/6/16 0:08,3.1,4,3.3,4,3.9,5
2016/6/16 0:09,3,4,3.1,4,2.7,3
2016/6/16 0:10,2.9,4,3,4,3.7,3
2016/6/16 0:11,2.7,4,2.9,4,3.7,3
2016/6/16 0:12,2.5,4,2.7,4,2.9,6
2016/6/16 0:13,2.4,4,2.4,4,4.2,5
2016/6/16 0:14,2.5,4,2.5,4,4.2,6
2016/6/16 0:15,2.5,4,2.5,4,4.7,6
2016/6/16 0:16,2.4,4,2.5,4,3.6,4
2016/6/16 0:17,2.3,4,2.4,4,3.7,6
2016/6/16 0:18,2.3,4,2.3,4,3.6,5
2016/6/16 0:19,2.4,4,2.4,4,4.2,2
2016/6/16 0:20,2.4,4,2.4,4,3.1,5
2016/6/16 0:21,2.5,4,2.5,4,3.8,4
2016/6/16 0:22,2.6,4,2.6,4,4.4,6
2016/6/16 0:23,2.6,4,2.6,4,4.1,4
2016/6/16 0:24,2.7,4,2.7,4,4.5,5
2016/6/16 0:25,2.6,4,2.6,4,3.6,4
2016/6/16 0:26,2.6,4,2.6,4,3,5
2016/6/16 0:27,2.5,4,2.6,4,2.5,3
2016/6/16 0:28,2.5,4,2.6,4,2.9,4
2016/6/16 0:29,2.4,4,2.5,4,2.9,3
2016/6/16 0:30,2.5,4,2.5,4,5.4,4
2016/6/16 0:31,2.6,4,2.6,4,5.2,3
2016/6/16 0:32,2.6,4,2.6,4,4.7,5
2016/6/16 0:33,2.5,4,2.6,4,3.3,4
2016/6/16 0:34,2.4,4,2.5,4,3.1,3
2016/6/16 0:35,2.4,4,2.4,4,4.5,4
2016/6/16 0:36,2.6,4,2.6,4,5.1,3
2016/6/16 0:37,2.7,4,2.7,4,5.7,4
2016/6/16 0:38,2.9,4,2.9,4,4.3,4
2016/6/16 0:39,3.1,4,3.1,4,5.4,5
2016/6/16 0:40,2.9,4,3,4,4.1,4
2016/6/16 0:41,2.8,4,2.9,4,3.8,3
2016/6/16 0:42,2.8,3,2.8,4,4.3,2
2016/6/16 0:43,2.8,3,2.8,4,3.6,4
2016/6/16 0:44,2.9,4,2.9,4,3.3,4
2016/6/16 0:45,2.8,4,2.9,4,3.1,3
2016/6/16 0:46,2.7,4,2.8,4,3,3
2016/6/16 0:47,2.6,4,2.7,4,3.5,4
2016/6/16 0:48,2.6,4,2.6,4,5.2,4
2016/6/16 0:49,2.6,4,2.6,4,3.9,4
2016/6/16 0:50,2.6,4,2.6,4,4.5,3
2016/6/16 0:51,2.5,4,2.6,4,2.4,3
2016/6/16 0:52,2.4,4,2.5,4,2.5,4
2016/6/16 0:53,2.4,4,2.4,4,3,4
2016/6/16 0:54,2.4,4,2.4,4,3.8,4
2016/6/16 0:55,2.3,4,2.4,4,3.3,3
2016/6/16 0:56,2.4,4,2.4,4,4.2,2
2016/6/16 0:57,2.4,4,2.4,4,4.1,3
2016/6/16 0:58,2.3,4,2.4,4,3.3,3
2016/6/16 0:59,2.3,4,2.3,4,3.6,3
2016/6/16 1:00,2.2,4,2.3,4,3.8,3
2016/6/16 1:01,2.4,4,2.4,4,3.7,5
2016/6/16 1:02,2.6,4,2.6,4,5.8,4
2016/6/16 1:03,2.7,4,2.7,4,4.4,3
2016/6/16 1:04,2.6,4,2.7,4,3.2,3
2016/6/16 1:05,2.7,4,2.7,4,4.8,4
2016/6/16 1:06,2.8,4,2.8,4,5.4,2
2016/6/16 1:07,2.9,4,2.9,4,5.2,5
2016/6/16 1:08,3,4,3,4,4.8,3
2016/6/16 1:09,3.1,4,3.1,4,4.4,5
2016/6/16 1:10,3.1,4,3.1,4,3.6,3
2016/6/16 1:11,3,4,3.1,4,3.7,2
2016/6/16 1:12,2.8,4,3,4,2.9,5
2016/6/16 1:13,2.8,4,2.8,4,3.3,5
2016/6/16 1:14,2.9,4,2.9,4,3.8,4
2016/6/16 1:15,2.9,4,2.9,4,4.3,4
2016/6/16 1:16,2.8,4,2.9,4,4.3,3
2016/6/16 1:17,2.7,4,2.8,4,3.6,3
2016/6/16 1:18,2.7,4,2.7,4,4.1,3
2016/6/16 1:19,2.6,4,2.6,4,3.7,4
2016/6/16 1:20,2.5,4,2.6,4,3.6,3
2016/6/16 1:21,2.5,4,2.5,4,3.2,2
2016/6/16 1:22,2.6,4,2.6,4,5.1,3
2016/6/16 1:23,2.7,4,2.7,4,4.9,4
2016/6/16 1:24,2.8,4,2.8,4,5.2,3
2016/6/16 1:25,2.8,4,2.8,4,4.4,3
2016/6/16 1:26,2.8,4,2.8,4,4.3,6
2016/6/16 1:27,2.9,4,2.9,4,5,5
2016/6/16 1:28,2.9,4,2.9,4,4.1,3
2016/6/16 1:29,3,4,3,4,3.9,4
2016/6/16 1:30,2.9,4,3,4,3.3,5
2016/6/16 1:31,2.9,4,2.9,4,3.8,4
2016/6/16 1:32,2.9,4,2.9,4,3.6,3
2016/6/16 1:33,2.8,4,2.9,4,5.5,5
2016/6/16 1:34,2.9,4,2.9,4,6.4,4
2016/6/16 1:35,2.9,4,3,4,5.1,5
2016/6/16 1:36,2.9,4,3,4,4.2,5
2016/6/16 1:37,2.9,4,2.9,4,4.9,5
2016/6/16 1:38,2.8,4,2.9,4,2.9,4
2016/6/16 1:39,2.6,4,2.7,4,3.2,4
2016/6/16 1:40,2.8,4,2.8,4,4.7,5
2016/6/16 1:41,2.9,5,2.9,4,5.1,5
2016/6/16 1:42,3,5,3.1,5,4.9,6
2016/6/16 1:43,3.1,5,3.1,5,4.5,5
2016/6/16 1:44,2.9,5,3.1,5,4.5,5
2016/6/16 1:45,2.9,5,2.9,5,5,4
2016/6/16 1:46,3,5,3,5,3.3,4
2016/6/16 1:47,2.9,5,3,5,3.6,4
2016/6/16 1:48,2.9,5,2.9,5,3.5,3
2016/6/16 1:49,3,5,3,5,3.3,3
2016/6/16 1:50,2.9,4,3,5,3.3,4
2016/6/16 1:51,2.8,4,2.9,5,3.9,4
2016/6/16 1:52,2.7,4,2.7,5,3.8,3
2016/6/16 1:53,2.5,4,2.6,5,4.4,3
2016/6/16 1:54,2.5,4,2.5,5,4.4,6
2016/6/16 1:55,2.4,4,2.5,5,3.3,5
2016/6/16 1:56,2.3,4,2.4,5,2.9,3
2016/6/16 1:57,2.2,4,2.3,4,2.6,3
2016/6/16 1:58,2.3,4,2.3,4,4.5,2
2016/6/16 1:59,2.4,3,2.4,4,4.5,3
2016/6/16 2:00,2.4,3,2.4,4,3.7,5
2016/6/16 2:01,2.3,3,2.4,4,3.1,3
2016/6/16 2:02,2.2,3,2.3,4,2.7,2
2016/6/16 2:03,2.3,3,2.3,4,4.4,4
2016/6/16 2:04,2.4,3,2.4,4,4.2,4
2016/6/16 2:05,2.4,3,2.4,4,3.6,4
2016/6/16 2:06,2.4,3,2.4,4,3.1,2
2016/6/16 2:07,2.4,3,2.5,3,2.6,4
2016/6/16 2:08,2.3,4,2.4,3,3.5,3
2016/6/16 2:09,2.3,4,2.3,3,4.1,5
2016/6/16 2:10,2.3,4,2.3,3,4.3,3
2016/6/16 2:11,2.4,4,2.4,3,3.7,4
2016/6/16 2:12,2.6,4,2.6,4,3.6,3
2016/6/16 2:13,2.5,4,2.6,4,3.8,3
2016/6/16 2:14,2.4,4,2.5,4,3,3
2016/6/16 2:15,2.4,4,2.4,4,3.2,3
2016/6/16 2:16,2.4,4,2.4,4,2.9,3
2016/6/16 2:17,2.4,4,2.4,4,3,4
2016/6/16 2:18,2.4,4,2.5,4,2.4,4
2016/6/16 2:19,2.3,4,2.4,4,2.6,6
2016/6/16 2:20,2.2,4,2.3,4,2,5
2016/6/16 2:21,2,4,2.2,4,1.8,3
2016/6/16 2:22,1.9,4,2,4,2,3
2016/6/16 2:23,1.7,4,1.8,4,2,4
2016/6/16 2:24,1.7,4,1.7,4,3.5,3
2016/6/16 2:25,1.7,4,1.7,4,3.2,4
2016/6/16 2:26,1.7,4,1.7,4,2.7,4
2016/6/16 2:27,1.7,4,1.7,4,3.8,3
2016/6/16 2:28,1.8,4,1.8,4,3.5,2
2016/6/16 2:29,1.8,4,1.8,4,3,3
2016/6/16 2:30,1.8,4,1.8,4,3,4
2016/6/16 2:31,2,3,2,4,3,3
2016/6/16 2:32,2.1,3,2.1,3,3.1,3
2016/6/16 2:33,2.2,3,2.2,3,4.5,4
2016/6/16 2:34,2.2,3,2.3,3,3.9,3
2016/6/16 2:35,2.2,3,2.2,3,2.7,4
2016/6/16 2:36,2.2,3,2.2,3,3,5
2016/6/16 2:37,2.2,3,2.2,3,3.6,3
2016/6/16 2:38,2.2,3,2.2,3,3.3,4
2016/6/16 2:39,2.2,3,2.3,3,2.9,5
2016/6/16 2:40,2.3,3,2.3,3,3.6,3
2016/6/16 2:41,2.3,3,2.3,3,3.9,2
2016/6/16 2:42,2.4,3,2.4,3,4.1,3
2016/6/16 2:43,2.4,3,2.4,3,2.9,3
2016/6/16 2:44,2.4,3,2.4,3,4.5,5
2016/6/16 2:45,2.5,4,2.5,4,4.3,4
2016/6/16 2:46,2.6,4,2.6,4,3.6,3
2016/6/16 2:47,2.6,4,2.6,4,4.4,5
2016/6/16 2:48,2.6,4,2.6,4,3.9,5
2016/6/16 2:49,2.7,4,2.7,4,3.6,3
2016/6/16 2:50,2.7,4,2.7,4,4.9,4
2016/6/16 2:51,2.7,4,2.7,4,3.8,3
2016/6/16 2:52,2.8,4,2.8,4,4.7,3
2016/6/16 2:53,2.9,4,2.9,4,6.1,4
2016/6/16 2:54,2.8,4,2.9,4,3.7,4
2016/6/16 2:55,2.7,4,2.8,4,2.6,4
2016/6/16 2:56,2.5,4,2.7,4,2.5,4
2016/6/16 2:57,2.5,3,2.6,4,4.2,4
2016/6/16 2:58,2.6,4,2.6,4,4.7,5
2016/6/16 2:59,2.6,4,2.6,4,3.7,3
2016/6/16 3:00,2.6,4,2.6,4,4.4,6
2016/6/16 3:01,2.6,4,2.6,4,4.2,4
2016/6/16 3:02,2.6,4,2.6,4,4.4,5
2016/6/16 3:03,2.5,4,2.6,4,4.7,3
2016/6/16 3:04,2.6,4,2.6,4,4.1,3
2016/6/16 3:05,2.6,4,2.6,4,3,3
2016/6/16 3:06,2.7,4,2.7,4,3,4
2016/6/16 3:07,2.7,4,2.7,4,3.5,3
2016/6/16 3:08,2.5,4,2.7,4,2.7,3
2016/6/16 3:09,2.5,4,2.5,4,3.2,5
2016/6/16 3:10,2.4,4,2.5,4,3.2,3
2016/6/16 3:11,2.4,4,2.4,4,3.9,5
2016/6/16 3:12,2.4,4,2.4,4,4.5,3
2016/6/16 3:13,2.4,4,2.5,4,5.4,3
2016/6/16 3:14,2.4,4,2.4,4,3.6,6
2016/6/16 3:15,2.5,4,2.5,4,3.8,3
2016/6/16 3:16,2.5,4,2.5,4,3.7,5
2016/6/16 3:17,2.5,4,2.5,4,4.8,5
2016/6/16 3:18,2.6,4,2.6,4,3.8,5
2016/6/16 3:19,2.6,4,2.6,4,3.8,4
2016/6/16 3:20,2.7,4,2.7,4,3.9,4
2016/6/16 3:21,2.6,4,2.7,4,2.7,5
2016/6/16 3:22,2.6,4,2.6,4,3.5,4
2016/6/16 3:23,2.5,4,2.5,4,4.1,4
2016/6/16 3:24,2.6,4,2.6,4,3.8,4
2016/6/16 3:25,2.5,4,2.6,4,3,5
2016/6/16 3:26,2.5,4,2.5,4,4.2,4
2016/6/16 3:27,2.5,4,2.5,4,3.9,3
2016/6/16 3:28,2.5,4,2.5,4,4.4,4
2016/6/16 3:29,2.6,4,2.6,4,4.8,4
2016/6/16 3:30,2.6,4,2.6,4,4.4,3
2016/6/16 3:31,2.6,4,2.6,4,3.3,5
2016/6/16 3:32,2.6,4,2.6,4,2.9,4
2016/6/16 3:33,2.6,4,2.6,4,3.5,3
2016/6/16 3:34,2.6,4,2.6,4,4.3,4
2016/6/16 3:35,2.7,4,2.7,4,4.9,3
2016/6/16 3:36,2.8,4,2.8,4,5.5,5
2016/6/16 3:37,2.8,4,2.8,4,4.2,3
2016/6/16 3:38,2.7,4,2.8,4,3.2,3
2016/6/16 3:39,2.6,4,2.7,4,3.8,3
2016/6/16 3:40,2.4,3,2.6,4,2,3
2016/6/16 3:41,2.4,3,2.4,4,3.6,4
2016/6/16 3:42,2.5,3,2.5,4,3.6,4
2016/6/16 3:43,2.5,3,2.5,4,3.3,5
2016/6/16 3:44,2.4,3,2.5,4,3.5,4
2016/6/16 3:45,2.3,3,2.4,4,3,5
2016/6/16 3:46,2.1,3,2.3,4,2.7,3
2016/6/16 3:47,2,3,2.1,4,3.3,5
2016/6/16 3:48,2.1,4,2.1,4,3.6,4
2016/6/16 3:49,2,4,2,4,3.5,3
2016/6/16 3:50,2.1,4,2.1,3,3.2,3
2016/6/16 3:51,2.1,4,2.1,3,2.9,3
2016/6/16 3:52,2.1,4,2.1,3,4.3,5
2016/6/16 3:53,2,4,2.1,3,4.4,5
2016/6/16 3:54,1.9,4,2,3,2.5,3
2016/6/16 3:55,1.9,4,1.9,3,2.5,4
2016/6/16 3:56,1.9,4,1.9,3,2.5,3
2016/6/16 3:57,1.8,3,1.9,3,2.6,5
2016/6/16 3:58,1.8,3,1.8,4,4.2,3
2016/6/16 3:59,1.9,3,1.9,4,3.2,3
2016/6/16 4:00,1.9,3,1.9,4,3.9,3
2016/6/16 4:01,2,3,2,4,4.2,3
2016/6/16 4:02,2,3,2,4,3.7,3
2016/6/16 4:03,2,3,2,4,3.2,2
2016/6/16 4:04,2.1,3,2.1,3,2.7,4
2016/6/16 4:05,2.1,3,2.1,3,3.6,3
2016/6/16 4:06,2.2,3,2.2,3,3.2,2
2016/6/16 4:07,2.3,3,2.3,3,4.2,3
2016/6/16 4:08,2.3,3,2.3,3,3.9,4
2016/6/16 4:09,2.3,3,2.3,3,3.3,4
2016/6/16 4:10,2.3,3,2.4,3,3.1,4
2016/6/16 4:11,2.2,3,2.3,3,2.7,4
2016/6/16 4:12,2.1,3,2.2,3,2,4
2016/6/16 4:13,2.1,3,2.1,3,2.5,4
2016/6/16 4:14,2.1,3,2.1,3,3,3
2016/6/16 4:15,2.1,3,2.1,3,3.1,3
2016/6/16 4:16,2,3,2.1,3,2.4,5
2016/6/16 4:17,1.9,3,2,3,2.7,4
2016/6/16 4:18,1.8,3,1.9,3,2.5,3
2016/6/16 4:19,1.7,3,1.8,3,2.4,3
2016/6/16 4:20,1.7,3,1.7,3,3.2,3
2016/6/16 4:21,1.9,3,1.9,3,4.9,3
2016/6/16 4:22,2,3,2,3,4.2,3
2016/6/16 4:23,2,3,2,3,3.2,4
2016/6/16 4:24,2,3,2,3,3,3
2016/6/16 4:25,2,3,2,3,2.7,2
2016/6/16 4:26,2,3,2,3,3.7,4
2016/6/16 4:27,2.1,3,2.1,3,3.3,3
2016/6/16 4:28,2.2,3,2.2,3,3.7,3
2016/6/16 4:29,2.4,3,2.4,3,3.2,2
2016/6/16 4:30,2.3,3,2.4,3,2.6,2
2016/6/16 4:31,2.3,3,2.4,3,3.7,3
2016/6/16 4:32,2.2,2,2.3,3,2.6,3
2016/6/16 4:33,2.3,3,2.3,3,4.2,4
2016/6/16 4:34,2.4,3,2.4,3,3.9,3
2016/6/16 4:35,2.3,3,2.4,3,2.6,2
2016/6/16 4:36,2.4,3,2.4,3,3.8,3
2016/6/16 4:37,2.3,3,2.4,3,3,3
2016/6/16 4:38,2.3,3,2.3,3,3.7,4
2016/6/16 4:39,2.2,3,2.3,3,2.5,3
2016/6/16 4:40,2.4,3,2.4,3,4.2,4
2016/6/16 4:41,2.4,3,2.4,3,3.6,2
2016/6/16 4:42,2.4,3,2.4,3,3.6,2
2016/6/16 4:43,2.4,3,2.4,3,3.5,2
2016/6/16 4:44,2.4,3,2.4,3,3.7,3
2016/6/16 4:45,2.4,3,2.4,3,3.6,2
2016/6/16 4:46,2.4,3,2.4,3,4.8,2
2016/6/16 4:47,2.5,3,2.5,3,4.3,2
2016/6/16 4:48,2.5,3,2.5,3,3.9,3
2016/6/16 4:49,2.6,3,2.6,3,3.7,4
2016/6/16 4:50,2.5,3,2.6,3,3.6,3
2016/6/16 4:51,2.5,3,2.5,3,3.7,3
2016/6/16 4:52,2.6,3,2.6,3,4.4,3
2016/6/16 4:53,2.6,3,2.6,3,4.1,3
2016/6/16 4:54,2.5,3,2.6,3,3.2,4
2016/6/16 4:55,2.5,3,2.6,3,3,3
2016/6/16 4:56,2.4,3,2.5,3,3.2,3
2016/6/16 4:57,2.4,3,2.4,3,3.9,3
2016/6/16 4:58,2.4,3,2.4,3,3.5,4
2016/6/16 4:59,2.3,3,2.4,3,2.7,2
2016/6/16 5:00,2.3,3,2.3,3,3.3,3
2016/6/16 5:01,2.4,3,2.4,3,3.3,3
2016/6/16 5:02,2.2,3,2.3,3,2.9,3
2016/6/16 5:03,2.2,3,2.2,3,4.2,2
2016/6/16 5:04,2.3,3,2.3,3,4.5,3
2016/6/16 5:05,2.5,3,2.5,3,3.8,3
2016/6/16 5:06,2.6,3,2.6,3,4.2,3
2016/6/16 5:07,2.5,3,2.6,3,3.5,3
2016/6/16 5:08,2.5,3,2.5,3,3.6,3
2016/6/16 5:09,2.5,3,2.5,3,2.5,3
2016/6/16 5:10,2.4,3,2.5,3,2.6,3
2016/6/16 5:11,2.4,3,2.4,3,2.7,3
2016/6/16 5:12,2.4,3,2.4,3,3.2,3
2016/6/16 5:13,2.5,3,2.5,3,3.5,3
2016/6/16 5:14,2.3,3,2.5,3,2.9,3
2016/6/16 5:15,2.2,4,2.3,3,2.7,5
2016/6/16 5:16,2.1,4,2.2,3,2.5,2
2016/6/16 5:17,2.1,4,2.1,3,2.5,3
2016/6/16 5:18,2,4,2.1,3,3,5
2016/6/16 5:19,2,4,2,3,2.4,5
2016/6/16 5:20,1.9,4,2,3,2.2,3
2016/6/16 5:21,1.8,3,1.9,3,2,1
2016/6/16 5:22,1.8,4,1.8,3,3.6,4
2016/6/16 5:23,1.8,4,1.8,3,3.8,4
2016/6/16 5:24,1.8,3,1.8,3,3.6,3
2016/6/16 5:25,2,3,2,4,4.3,3
2016/6/16 5:26,2,3,2,4,3.9,5
2016/6/16 5:27,2,4,2,4,2.9,5
2016/6/16 5:28,2,4,2,4,2.7,6
2016/6/16 5:29,2.2,3,2.2,4,4.2,4
2016/6/16 5:30,2.4,3,2.4,3,4.2,3
2016/6/16 5:31,2.5,4,2.5,4,4.1,3
2016/6/16 5:32,2.6,4,2.6,4,4.3,5
2016/6/16 5:33,2.6,4,2.6,4,3,3
2016/6/16 5:34,2.5,4,2.6,4,3.1,3
2016/6/16 5:35,2.4,4,2.5,4,4.1,3
2016/6/16 5:36,2.4,4,2.4,4,3.5,5
2016/6/16 5:37,2.5,4,2.5,4,3.9,3
2016/6/16 5:38,2.6,4,2.6,4,4.3,4
2016/6/16 5:39,2.5,4,2.6,4,3.5,4
2016/6/16 5:40,2.4,4,2.5,4,3,3
2016/6/16 5:41,2.3,4,2.4,4,2.9,4
2016/6/16 5:42,2.1,4,2.3,4,1.9,4
2016/6/16 5:43,2.1,4,2.1,4,3.1,5
2016/6/16 5:44,2,4,2.1,4,1.9,3
2016/6/16 5:45,2,4,2,4,3.1,4
2016/6/16 5:46,2,4,2,4,3.3,5
2016/6/16 5:47,1.9,4,2,4,3.1,3
2016/6/16 5:48,1.9,4,1.9,4,4.2,5
2016/6/16 5:49,2,4,2,4,3.7,4
2016/6/16 5:50,1.9,4,2,4,3.7,4
2016/6/16 5:51,2,4,2,4,3.1,3
2016/6/16 5:52,2.1,4,2.1,4,3,3
2016/6/16 5:53,2.1,4,2.1,4,2.9,4
2016/6/16 5:54,2.2,4,2.2,4,3.3,3
2016/6/16 5:55,2.2,3,2.2,4,3.9,3
2016/6/16 5:56,2.3,3,2.3,3,4.7,3
2016/6/16 5:57,2.4,3,2.4,3,4.2,3
2016/6/16 5:58,2.3,3,2.4,3,3.3,3
2016/6/16 5:59,2.4,3,2.4,3,3.9,6
2016/6/16 6:00,2.4,3,2.4,3,3.7,5
2016/6/16 6:01,2.4,3,2.4,3,3.8,3
2016/6/16 6:02,2.4,3,2.4,3,3.2,3
2016/6/16 6:03,2.5,4,2.5,3,3.9,6
2016/6/16 6:04,2.5,4,2.5,3,2.7,5
2016/6/16 6:05,2.4,4,2.5,3,3.1,3
2016/6/16 6:06,2.4,4,2.4,3,4.4,3
2016/6/16 6:07,2.3,4,2.4,3,4.2,4
2016/6/16 6:08,2.3,4,2.3,3,3.6,4
2016/6/16 6:09,2.3,4,2.4,3,3.9,4
2016/6/16 6:10,2.4,4,2.4,3,3.7,4
2016/6/16 6:11,2.3,4,2.4,3,3.2,4
2016/6/16 6:12,2.3,4,2.3,3,3.5,4
2016/6/16 6:13,2.2,4,2.3,4,3.2,5
2016/6/16 6:14,2.3,4,2.3,4,4.7,3
2016/6/16 6:15,2.4,4,2.4,4,4.4,3
2016/6/16 6:16,2.4,4,2.5,4,3.3,4
2016/6/16 6:17,2.4,4,2.4,4,3,3
2016/6/16 6:18,2.4,3,2.4,4,3.8,4
2016/6/16 6:19,2.4,3,2.4,4,3.7,4
2016/6/16 6:20,2.2,3,2.4,4,3,4
2016/6/16 6:21,2.3,3,2.3,4,4.1,3
2016/6/16 6:22,2.4,3,2.4,4,3.3,3
2016/6/16 6:23,2.4,3,2.4,4,4.3,3
2016/6/16 6:24,2.3,3,2.4,4,4.1,4
2016/6/16 6:25,2.2,3,2.3,4,3.8,4
2016/6/16 6:26,2.3,3,2.3,4,3.7,5
2016/6/16 6:27,2.3,3,2.3,3,3.9,5
2016/6/16 6:28,2.3,4,2.4,3,3.9,5
2016/6/16 6:29,2.4,4,2.4,3,4.7,3
2016/6/16 6:30,2.4,3,2.4,3,3.2,2
2016/6/16 6:31,2.4,3,2.5,3,3.2,3
2016/6/16 6:32,2.4,3,2.4,3,3.3,3
2016/6/16 6:33,2.3,3,2.4,3,3.2,3
2016/6/16 6:34,2.2,3,2.3,3,2,4
2016/6/16 6:35,2.2,3,2.2,3,3.6,4
2016/6/16 6:36,2.1,3,2.2,3,2.2,4
2016/6/16 6:37,2,3,2.1,3,2.7,3
2016/6/16 6:38,2,3,2,3,4.4,3
2016/6/16 6:39,2,3,2,3,2.9,3
2016/6/16 6:40,2,3,2,3,3,3
2016/6/16 6:41,2,3,2,3,3.2,2
2016/6/16 6:42,2,3,2,3,3.5,3
2016/6/16 6:43,1.9,3,2,3,2.5,2
2016/6/16 6:44,2,3,2,3,3.7,3
2016/6/16 6:45,2.1,3,2.1,3,3.7,4
2016/6/16 6:46,2.1,3,2.1,3,2.7,4
2016/6/16 6:47,2.1,3,2.1,3,3.1,3
2016/6/16 6:48,2.1,3,2.1,3,3.3,3
2016/6/16 6:49,2,3,2.1,3,3,3
2016/6/16 6:50,2,3,2,3,2.2,2
2016/6/16 6:51,2,3,2,3,3.6,3
2016/6/16 6:52,2.1,3,2.1,3,3.2,4
2016/6/16 6:53,2.1,3,2.1,3,3.2,3
2016/6/16 6:54,2,3,2.1,3,1.9,2
2016/6/16 6:55,1.8,2,2,3,2.1,4
2016/6/16 6:56,1.9,2,1.9,3,2.7,3
2016/6/16 6:57,1.9,2,1.9,3,2.9,3
2016/6/16 6:58,1.8,3,1.9,3,2.5,4
2016/6/16 6:59,1.8,3,1.8,3,2.2,3
2016/6/16 7:00,1.9,3,1.9,3,3,3
2016/6/16 7:01,1.8,3,1.9,3,2.7,3
2016/6/16 7:02,1.8,3,1.8,3,3,2
2016/6/16 7:03,1.7,3,1.8,3,2.5,1
2016/6/16 7:04,1.8,3,1.8,3,3.6,3
2016/6/16 7:05,1.9,3,1.9,2,2.5,4
2016/6/16 7:06,1.8,3,1.9,2,2.1,4
2016/6/16 7:07,1.8,3,1.8,2,2.2,4
2016/6/16 7:08,1.8,3,1.8,3,2.2,3
2016/6/16 7:09,1.8,3,1.8,3,2,3
2016/6/16 7:10,1.7,3,1.8,3,2.7,3
2016/6/16 7:11,1.7,3,1.7,3,2.5,2
2016/6/16 7:12,1.6,3,1.7,3,2.2,2
2016/6/16 7:13,1.7,3,1.7,3,3.1,3
2016/6/16 7:14,1.7,3,1.7,3,3.9,3
2016/6/16 7:15,1.7,3,1.7,3,2.2,3
2016/6/16 7:16,1.7,3,1.7,3,2.6,3
2016/6/16 7:17,1.7,3,1.7,3,3,3
2016/6/16 7:18,1.9,3,1.9,3,4.2,3
2016/6/16 7:19,2,3,2,3,3.6,3
2016/6/16 7:20,1.9,3,2,3,3.8,3
2016/6/16 7:21,2.1,3,2.1,3,4.5,3
2016/6/16 7:22,2.3,3,2.3,3,4.2,4
2016/6/16 7:23,2.3,3,2.3,3,4.3,4
2016/6/16 7:24,2.5,3,2.5,3,5.7,3
2016/6/16 7:25,2.6,3,2.6,3,4.8,4
2016/6/16 7:26,2.7,3,2.7,3,2.9,2
2016/6/16 7:27,2.7,3,2.7,3,4.4,16
2016/6/16 7:28,2.8,3,2.8,3,4.7,5
2016/6/16 7:29,2.7,3,2.8,3,3.3,5
2016/6/16 7:30,2.8,4,2.8,3,3.1,4
2016/6/16 7:31,2.7,4,2.8,3,3.5,4
2016/6/16 7:32,2.6,4,2.7,3,2.9,4
2016/6/16 7:33,2.5,4,2.6,3,2.6,5
2016/6/16 7:34,2.3,4,2.5,3,2.4,5
2016/6/16 7:35,2.2,4,2.3,3,3.6,5
2016/6/16 7:36,2.3,4,2.3,3,3.7,5
2016/6/16 7:37,2.3,4,2.3,3,4.3,5
2016/6/16 7:38,2.3,4,2.3,3,3.8,5
2016/6/16 7:39,2.3,5,2.3,4,3.9,4
2016/6/16 7:40,2.3,5,2.3,4,3.3,4
2016/6/16 7:41,2.2,5,2.3,4,2.6,6
2016/6/16 7:42,2.1,5,2.2,4,2.2,6
2016/6/16 7:43,2.2,5,2.2,4,3,6
2016/6/16 7:44,2.2,5,2.2,4,2.6,6
2016/6/16 7:45,2.2,5,2.2,4,3.3,4
2016/6/16 7:46,2.1,5,2.2,4,3.1,4
2016/6/16 7:47,2,5,2.1,4,2.5,5
2016/6/16 7:48,1.9,5,2,4,3.2,5
2016/6/16 7:49,2,5,2,5,3.9,4
2016/6/16 7:50,2.2,5,2.2,5,5,5
2016/6/16 7:51,2.3,5,2.3,5,3.9,4
2016/6/16 7:52,2.4,5,2.4,5,4.2,5
2016/6/16 7:53,2.4,5,2.4,5,3.7,5
2016/6/16 7:54,2.5,5,2.5,5,2.9,4
2016/6/16 7:55,2.4,4,2.5,5,3.3,3
2016/6/16 7:56,2.3,4,2.4,5,1.6,5
2016/6/16 7:57,2.3,4,2.3,5,3.3,4
2016/6/16 7:58,2.3,4,2.3,5,3.9,2
2016/6/16 7:59,2.2,4,2.3,5,3.5,4
2016/6/16 8:00,2.1,4,2.2,5,3.5,5
2016/6/16 8:01,2.2,4,2.2,5,5.5,4
2016/6/16 8:02,2.1,4,2.2,5,4.1,3
2016/6/16 8:03,2.2,4,2.2,5,4.3,3
2016/6/16 8:04,2.3,3,2.3,5,3.7,3
2016/6/16 8:05,2.4,3,2.4,4,3.9,3
2016/6/16 8:06,2.6,3,2.6,3,4.3,3
2016/6/16 8:07,2.7,3,2.7,3,3.8,3
2016/6/16 8:08,2.7,3,2.7,3,3.9,2
2016/6/16 8:09,2.7,3,2.7,3,4.1,3
2016/6/16 8:10,2.7,3,2.7,3,3.2,4
2016/6/16 8:11,2.5,3,2.7,3,2.4,5
2016/6/16 8:12,2.4,3,2.5,3,3.3,4
2016/6/16 8:13,2.3,3,2.4,3,2.9,4
2016/6/16 8:14,2.2,3,2.3,3,2.5,2
2016/6/16 8:15,2,3,2.2,3,2.2,3
2016/6/16 8:16,1.9,3,2,3,2.9,3
2016/6/16 8:17,1.8,3,1.9,3,3.2,3
2016/6/16 8:18,1.8,3,1.9,3,3.2,2
2016/6/16 8:19,1.9,3,1.9,3,4.1,3
2016/6/16 8:20,1.9,3,1.9,3,2.9,3
2016/6/16 8:21,2,3,2,3,4.9,3
2016/6/16 8:22,2.1,3,2.1,3,3,3
2016/6/16 8:23,2.2,3,2.2,3,4.3,3
2016/6/16 8:24,2.3,3,2.3,3,3,5
2016/6/16 8:25,2.4,3,2.4,3,3.2,3
2016/6/16 8:26,2.4,3,2.4,3,3.2,4
2016/6/16 8:27,2.4,3,2.4,3,4.4,4
2016/6/16 8:28,2.5,3,2.5,3,3.7,3
2016/6/16 8:29,2.5,3,2.5,3,5.6,5
2016/6/16 8:30,2.6,4,2.6,3,3.5,4
2016/6/16 8:31,2.5,4,2.6,3,4.8,5
2016/6/16 8:32,2.6,4,2.6,3,4.1,6
2016/6/16 8:33,2.6,4,2.6,3,4.2,5
2016/6/16 8:34,2.6,4,2.6,3,3.3,5
2016/6/16 8:35,2.6,4,2.6,3,4.4,4
2016/6/16 8:36,2.6,5,2.6,3,3.8,6
2016/6/16 8:37,2.7,5,2.7,5,4.9,6
2016/6/16 8:38,2.7,5,2.7,5,3.1,5
2016/6/16 8:39,2.7,5,2.7,5,5,4
2016/6/16 8:40,2.7,5,2.7,5,5,4
2016/6/16 8:41,2.9,5,2.9,5,5.7,5
2016/6/16 8:42,2.8,5,2.9,5,3.2,5
2016/6/16 8:43,2.8,5,2.8,5,4.4,3
2016/6/16 8:44,2.9,5,2.9,5,4.3,5
2016/6/16 8:45,2.8,5,2.9,5,3.2,4
2016/6/16 8:46,2.8,4,2.9,5,2.7,3
2016/6/16 8:47,2.7,4,2.8,5,3,3
2016/6/16 8:48,2.6,4,2.7,5,2.6,2
2016/6/16 8:49,2.5,4,2.6,5,2.9,3
2016/6/16 8:50,2.4,4,2.5,5,3.6,3
2016/6/16 8:51,2.2,4,2.4,5,3.6,2
2016/6/16 8:52,2.3,4,2.3,5,5,3
2016/6/16 8:53,2.5,4,2.5,5,6,4
2016/6/16 8:54,2.5,4,2.5,5,4.2,4
2016/6/16 8:55,2.6,4,2.6,5,4.5,5
2016/6/16 8:56,2.7,4,2.7,4,4.2,5
2016/6/16 8:57,2.8,4,2.8,4,3.8,3
2016/6/16 8:58,2.9,4,2.9,4,3.6,3
2016/6/16 8:59,2.9,4,2.9,4,3.7,4
2016/6/16 9:00,2.9,4,2.9,4,2.7,4
2016/6/16 9:01,2.9,4,2.9,4,2.6,3
2016/6/16 9:02,2.8,4,2.9,4,4.3,3
2016/6/16 9:03,2.7,4,2.8,4,4.8,3
2016/6/16 9:04,2.8,3,2.8,4,4.3,3
2016/6/16 9:05,2.6,3,2.7,4,3.7,3
2016/6/16 9:06,2.5,3,2.6,4,3.2,3
2016/6/16 9:07,2.4,3,2.5,4,3.5,3
2016/6/16 9:08,2.4,3,2.4,4,2.6,3
2016/6/16 9:09,2.3,3,2.3,4,3.8,3
2016/6/16 9:10,2.3,3,2.4,4,3.8,2
2016/6/16 9:11,2.3,3,2.3,4,3.1,3
2016/6/16 9:12,2.3,3,2.3,4,3.9,3
2016/6/16 9:13,2.2,3,2.3,4,3.5,3
2016/6/16 9:14,2.1,3,2.1,3,3.2,3
2016/6/16 9:15,2.1,3,2.1,3,3.6,3
2016/6/16 9:16,2.1,3,2.1,3,2.9,5
2016/6/16 9:17,2.1,3,2.1,3,2.2,5
2016/6/16 9:18,2.1,3,2.1,3,1.8,3
2016/6/16 9:19,1.9,3,2.1,3,1.9,4
2016/6/16 9:20,1.9,3,1.9,3,2.5,2
2016/6/16 9:21,1.8,3,1.9,3,2,2
2016/6/16 9:22,1.7,3,1.8,3,2.7,3
2016/6/16 9:23,1.8,3,1.8,3,3.6,3
2016/6/16 9:24,1.8,3,1.8,3,2.5,3
2016/6/16 9:25,1.7,3,1.8,3,2.2,2
2016/6/16 9:26,1.6,3,1.7,3,2.9,2
2016/6/16 9:27,1.6,3,1.6,3,2.4,3
2016/6/16 9:28,1.7,3,1.7,3,2.2,3
2016/6/16 9:29,1.7,3,1.7,3,2.5,2
2016/6/16 9:30,1.7,3,1.8,3,2.2,3
2016/6/16 9:31,1.8,3,1.8,3,2.4,2
2016/6/16 9:32,1.8,3,1.8,3,3.7,3
2016/6/16 9:33,1.8,3,1.8,3,3.3,3
2016/6/16 9:34,1.7,3,1.8,3,2.7,4
2016/6/16 9:35,1.8,3,1.8,3,2.2,3
2016/6/16 9:36,1.8,3,1.8,3,2.6,3
2016/6/16 9:37,1.8,3,1.8,3,2.6,4
2016/6/16 9:38,1.8,3,1.8,3,2,3
2016/6/16 9:39,1.7,3,1.8,3,1.4,16
2016/6/16 9:40,1.5,3,1.6,3,0.9,1
2016/6/16 9:41,1.4,3,1.5,3,1.1,4
2016/6/16 9:42,1.4,3,1.4,3,2.4,3
2016/6/16 9:43,1.2,2,1.3,3,2,3
2016/6/16 9:44,1.1,2,1.2,3,1.5,2
2016/6/16 9:45,1.1,2,1.1,3,1.6,1
2016/6/16 9:46,1,2,1.1,3,2.5,2
2016/6/16 9:47,1,2,1,3,1.9,2
2016/6/16 9:48,1,2,1,3,3.5,3
2016/6/16 9:49,1.1,2,1.1,3,2.4,4
2016/6/16 9:50,1.2,2,1.2,3,2.5,2
2016/6/16 9:51,1.4,2,1.4,3,2.7,2
2016/6/16 9:52,1.4,2,1.4,2,2.7,3
2016/6/16 9:53,1.5,2,1.5,2,2.5,3
2016/6/16 9:54,1.5,2,1.5,2,1.9,3
2016/6/16 9:55,1.5,2,1.6,2,2.2,2
2016/6/16 9:56,1.5,2,1.6,2,1.9,2
2016/6/16 9:57,1.5,2,1.5,2,2.2,2
2016/6/16 9:58,1.4,2,1.5,2,2.6,3
2016/6/16 9:59,1.5,2,1.5,2,2.9,3
2016/6/16 10:00,1.5,2,1.5,2,2.6,3
2016/6/16 10:01,1.4,2,1.5,2,1.5,2
2016/6/16 10:02,1.3,2,1.4,2,2.2,2
2016/6/16 10:03,1.2,2,1.3,2,2.4,3
2016/6/16 10:04,1.3,2,1.3,2,2.7,3
2016/6/16 10:05,1.3,2,1.3,2,2.1,3
2016/6/16 10:06,1.3,2,1.3,2,2.4,3
2016/6/16 10:07,1.3,2,1.3,2,3.7,3
2016/6/16 10:08,1.4,2,1.4,2,2.4,2
2016/6/16 10:09,1.4,2,1.4,2,3.6,3
2016/6/16 10:10,1.4,2,1.4,2,2.9,3
2016/6/16 10:11,1.5,2,1.5,2,2.5,1
2016/6/16 10:12,1.6,2,1.6,2,3.2,3
2016/6/16 10:13,1.7,2,1.7,2,3.2,4
2016/6/16 10:14,1.8,2,1.8,2,3.2,3
2016/6/16 10:15,1.8,2,1.8,2,2.9,3
2016/6/16 10:16,1.9,2,1.9,2,2.2,3
2016/6/16 10:17,1.8,2,1.8,2,2.9,2
2016/6/16 10:18,2,2,2,2,4.4,3
2016/6/16 10:19,2,2,2,2,3.6,3
2016/6/16 10:20,2.1,3,2.1,2,3.7,3
2016/6/16 10:21,2.2,3,2.2,3,3.3,3
2016/6/16 10:22,2.2,3,2.3,3,3.2,4
2016/6/16 10:23,2.3,3,2.3,3,2.7,4
2016/6/16 10:24,2.2,3,2.3,3,2.6,3
2016/6/16 10:25,2.2,3,2.2,3,2.7,2
2016/6/16 10:26,2.3,3,2.3,3,3,4
2016/6/16 10:27,2.3,3,2.3,3,2.4,3
2016/6/16 10:28,2.1,3,2.3,3,2.6,2
2016/6/16 10:29,2.1,3,2.1,3,3.7,3
2016/6/16 10:30,2,3,2.1,3,3.1,3
2016/6/16 10:31,2,3,2,3,3,3
2016/6/16 10:32,1.8,4,2,3,2,4
2016/6/16 10:33,1.7,4,1.8,3,2.4,5
2016/6/16 10:34,1.6,4,1.7,3,1.5,5
2016/6/16 10:35,1.5,4,1.6,3,1.1,3
2016/6/16 10:36,1.4,4,1.5,3,1,5
2016/6/16 10:37,1.3,4,1.4,3,2.1,4
2016/6/16 10:38,1.4,4,1.4,3,3.7,5
2016/6/16 10:39,1.3,5,1.4,3,3.5,6
2016/6/16 10:40,1.4,5,1.4,3,2.7,5
2016/6/16 10:41,1.4,5,1.4,3,2.6,5
2016/6/16 10:42,1.5,5,1.5,4,3.2,3
2016/6/16 10:43,1.5,4,1.5,4,3.5,4
2016/6/16 10:44,1.8,5,1.8,5,6.2,5
2016/6/16 10:45,2.1,5,2.1,5,5.6,5
2016/6/16 10:46,2.3,4,2.3,4,3.1,3
2016/6/16 10:47,2.4,4,2.4,4,3,3
2016/6/16 10:48,2.3,4,2.4,4,2.4,3
2016/6/16 10:49,2.3,4,2.3,4,2.1,4
2016/6/16 10:50,2.2,4,2.3,4,2.1,3
2016/6/16 10:51,2.2,4,2.2,4,1.9,3
2016/6/16 10:52,2.1,4,2.2,4,2.2,4
2016/6/16 10:53,2,4,2.1,4,1.1,2
2016/6/16 10:54,1.8,3,2,4,2.9,3
2016/6/16 10:55,1.7,3,1.8,4,3,6
2016/6/16 10:56,1.6,3,1.7,4,2.1,3
2016/6/16 10:57,1.5,3,1.6,4,1.8,5
2016/6/16 10:58,1.5,3,1.5,4,2,3
2016/6/16 10:59,1.4,3,1.5,4,1.9,3
2016/6/16 11:00,1.4,3,1.4,4,1.8,3
2016/6/16 11:01,1.3,3,1.4,4,1.4,4
2016/6/16 11:02,1.3,3,1.3,3,1.3,2
2016/6/16 11:03,1.4,3,1.4,4,2.4,3
2016/6/16 11:04,1.3,3,1.4,3,2.1,3
2016/6/16 11:05,1.3,3,1.3,3,2.9,3
2016/6/16 11:06,1.4,3,1.4,3,3,3
2016/6/16 11:07,1.5,3,1.5,3,2.6,5
2016/6/16 11:08,1.4,3,1.5,3,2.5,4
2016/6/16 11:09,1.4,3,1.4,3,2.6,4
2016/6/16 11:10,1.4,3,1.4,3,2.4,3
2016/6/16 11:11,1.5,3,1.5,3,2.9,3
2016/6/16 11:12,1.6,3,1.6,3,2.6,2
2016/6/16 11:13,1.6,3,1.6,3,2.2,3
2016/6/16 11:14,1.5,3,1.6,3,1.5,1
2016/6/16 11:15,1.4,3,1.5,3,1.1,3
2016/6/16 11:16,1.3,3,1.4,3,1.9,3
2016/6/16 11:17,1.2,2,1.3,3,2.2,2
2016/6/16 11:18,1.3,2,1.3,3,2.9,1
2016/6/16 11:19,1.3,2,1.3,3,2.5,2
2016/6/16 11:20,1.3,2,1.3,3,3,2
2016/6/16 11:21,1.4,2,1.4,3,3.1,2
2016/6/16 11:22,1.4,2,1.4,3,3.2,1
2016/6/16 11:23,1.5,2,1.5,3,2.5,2
2016/6/16 11:24,1.5,2,1.5,3,3.2,2
2016/6/16 11:25,1.7,2,1.7,2,3.9,2
2016/6/16 11:26,1.9,2,1.9,2,3.6,1
2016/6/16 11:27,1.9,1,1.9,2,3.3,2
2016/6/16 11:28,1.8,1,1.9,2,3,1
2016/6/16 11:29,1.9,1,1.9,2,3,2
2016/6/16 11:30,1.8,1,1.9,2,2.6,2
2016/6/16 11:31,1.7,2,1.8,2,1.6,3
2016/6/16 11:32,1.5,2,1.7,2,1.8,3
2016/6/16 11:33,1.5,2,1.5,2,2.2,2
2016/6/16 11:34,1.5,2,1.5,2,2.7,2
2016/6/16 11:35,1.5,2,1.5,2,2.9,2
2016/6/16 11:36,1.3,2,1.5,2,2.4,2
2016/6/16 11:37,1.3,2,1.3,1,3,2
2016/6/16 11:38,1.3,2,1.3,1,2.9,3
2016/6/16 11:39,1.4,2,1.4,1,3.8,2
2016/6/16 11:40,1.5,2,1.5,1,2.7,3
2016/6/16 11:41,1.6,2,1.6,2,2.7,3
2016/6/16 11:42,1.7,2,1.7,2,3.3,3
2016/6/16 11:43,1.8,3,1.8,2,2.9,3
2016/6/16 11:44,1.9,3,1.9,3,3.3,4
2016/6/16 11:45,1.9,3,1.9,3,3.2,3
2016/6/16 11:46,2,3,2,3,2.2,4
2016/6/16 11:47,1.9,3,2,3,2,3
2016/6/16 11:48,1.8,3,1.9,3,2.4,3